64572 station(s) have been heard in the last 24 hours.

<< 776 777 778 779 780 781 782 >>
  Name/Id Latest heard Comment/Other Map
Symbol BG5FLY-1 1788265778 play on air go fly Map
Symbol KB3AFY-7 1788265778 Map
Symbol PP5BLU-14 1788265778 Digipeater CRB - Portal da Saxonia Map
Symbol IZ5CMC-13 1788265778 Maremma Gateway#GR meshCom/B=100/N11 Map
Symbol KD9RFH-N 1788265778 70cm MMDVM Voice (C4FM) 440.00000MHz +0.0000MHz, KD9RFH_Pi-Star_ND Map
Symbol MI0CBH-N 1788265778 70cm MMDVM Voice (C4FM) 434.00000MHz +0.0000MHz, MI0CBH_Pi-Star_ND Map
Symbol PY7RFP-D 1788265778 Powered by WPSD (https://wpsd.radio) Map
Symbol W4FJ A 1788265778 1.2 Voice 1284.0000 -20.00 MHz Map
Symbol W4FJ C 1788265778 2m Voice 147.255 +0.600 MHz Map
Symbol N5UXT-11 1788265778 The AllStar Node 29719 & 29734 (Hub) - Echolink Node 838977 - 444.950+ PL 114.8 - Located In The Big Easy - New Orleans, La Map
Symbol W4FJ B 1788265778 440 Voice 443.71250 +5.00 MHz Map
Symbol KR4ACN-N 1788265778 70cm MMDVM Voice (C4FM) 433.55000MHz +0.0000MHz, KR4ACN_Pi-Star_ND Map
Symbol K6CED-10 1788265778 441.500MHz Winlink VARA FM Gateway Map
Symbol SP1WSR B 1788265778 70cm Voice (D-Star) 439.91250MHz -9.9000MHz Map
Symbol KI4YTE-N 1788265778 70cm MMDVM Voice (C4FM) 446.52500MHz +0.0000MHz, KI4YTE_Pi-Star_ND Map
Symbol DK4RSM B 1788265778 70cm Voice (D-Star) 433.40000MHz +0.0000MHz Map
Symbol F4GGL-B 1788265778 440 Voice 431.00000MHz +7.6000MHz Map
Symbol DJ1MG-12 1788265778 #DJ1MG-12/B=100 Map
Symbol HB9DDE B 1788265778 70cm Voice (D-Star) 433.72475MHz +0.0000MHz Map
Symbol W2PAX-Y 1788265777 70cm MMDVM Voice (C4FM) 433.05000MHz +0.0000MHz, APRS for YSFGateway Map
Symbol APRS2TG 1788265777 9M2PJU APRS To Telegram Bot https://aprs2tg.hamradio.my Map
Symbol KK2BUD-N 1788265777 70cm MMDVM Voice (C4FM) 432.10000MHz +0.0000MHz, KK2BUD_Pi-Star_ND Map
Symbol W5BII-B 1788265777 440 Voice 443.325MHz +5.00 Map
Symbol JG7IMF M 1788265777 70cm Voice (D-Star) 430.67000MHz +0.0000MHz Map
Symbol N0TLE-N 1788265777 440 MMDVM Voice 446.52500MHz +0.0000MHz, N0TLE_Pi-Star Map
Symbol KG7HIU 1788265777 https://aprsdroid.org Map
Symbol BA7OPG-1 1788265777 E1[NRL_2100A_D4_260205 12.0V RX:436.5000:67.0 TX:436.5000:67.0] HELLO Map
Symbol KC2NPZ-D 1788265777 70cm MMDVM Voice (DMR) 433.00000MHz +0.0000MHz, APRS for DMRGateway Map
Symbol K4NWX-N 1788265777 70cm MMDVM Voice (C4FM) 434.55000MHz +0.0000MHz, K4NWX_Pi-Star_ND Map
Symbol I5EKX-10 1788265777 ... APRS iGate LoRa tech ... Map
Symbol YM4SRC-1 1788265777 LoRa Digi on 433.775MHz Temp: 29.23C, Humid:30.25%, Batt: 4.16V, Solar: 18.95V DigiPcktC:0 Map
Symbol EB4DLW-N 1788265777 2m MMDVM Voice (C4FM) 144.72500MHz +0.0000MHz, EB4DLW_Pi-Star_ND Map
Symbol K1JOG B 1788265777 70cm Voice (D-Star) 446.61250MHz +0.0000MHz Map
Symbol N5YJZ-2 1788265777 LoRa APRS Map
Symbol N5SEA-R1 1788265777 AllStar Repeater Hub 62872 444.825MHz T100.0 +5.0 Map
Symbol N0JCS-B 1788265776 70cm Voice (D-Star) 446.27500MHz +0.0000MHz Map
Symbol BG5TZC-1 1788265776 ()(BG9JYT) Map
Symbol IZ7DJV-11 1788265776 APRS VHF - Info IU7KFM Map
Symbol OE8XVK B 1788265776 70cm Voice 438.550 -7.60 Mhz Map
Symbol MEC501389 1788265776 Clb=4.8m/s Type=M20 ser=510-2-01389 Details on http://radiosondy.info Map
Symbol MB7UPS-2 1788265776 DIXPRS 2.4.0-beta3 Rasp.Pi (B2) Wide1-1 Digi Map
Symbol M7IWW-N 1788265776 70cm MMDVM Voice (C4FM) 438.80000MHz +0.0000MHz, M7IWW_Pi-Star_ND Map
Symbol M7XFY-N 1788265776 440 MMDVM Voice 438.80000MHz +0.0000MHz, M7XFY_Pi-Star Map
Symbol JR2POZ B 1788265776 70cm Voice (D-Star) 438.60000MHz +0.0000MHz Map
Symbol SV2JU-2 1788265776 PANORAMA WEATHER STATION Map
Symbol IZ0VQU-H 1788265776 70cm Voice (D-Star) 433.55000MHz +0.0000MHz Map
Symbol IW3HXV-N 1788265776 440 MMDVM Voice 432.88750MHz +0.0000MHz, IW3HXV_Pi-Star Map
Symbol DN9JRN-D 1788265776 70cm MMDVM Voice (DMR) 438.45000MHz -7.6000MHz, APRS for DMRGateway Map
Symbol GB3LM 1788265776 145.725MHz T071 -060 Visit lincolnrepeaters.co.uk Map
Symbol SK4KO-4 1788265776 13.4V 20C SBSA, Evertsberg Map